Notices

What's New in latest Release from April 7th, 2021:

- Updated Glossary, including Speed of Maximum Gust, and Total Hourly Precipitation

- Updated national and regional climate services offices contacts and prices information

- Addition of station inventory lists for 1981-2010, 1971-2000, and 1961-1990 Normals.

If you haven't already, please take our survey and provide feedback about our website: https://eccc.sondage-survey.ca/f/LanguageSelection.aspx?s=442ca660-fcf1-47c0-95a9-59707d6fd709

Hourly Data Report for November 20, 2004

SHERBROOKE A
QUEBEC

45°26'00.000" N
71°41'00.000" W
241.40 m
7028124
71610
YSC

Download Data

Hourly Data (November 2004)
Hourly Data Report for November 20, 2004
TIME
LST
Temp Definition
°C
Dew Point Definition
°C
Rel Hum Definition
%
Precip. Amount Definition
mm

Wind Dir Definition
10's deg

Wind Spd Definition
km/h
Visibility Definition
km
Stn Press Definition
kPa
Hmdx Definition


Wind Chill Definition


Weather Definition


00:00 -2.4 -5.5 79   19 6 15.0 99.42   -5  
01:00 -4.3 -6.8 83     0 15.0 99.40      
02:00 -2.4 -5.4 80   18 9 15.0 99.44   -6  
03:00 -3.1 -5.7 82   22 9 15.0 99.47   -7  
04:00 -3.1 -5.5 83   24 6 15.0 99.46   -6  
05:00 -4.5 -6.2 88   27 7 15.0 99.48   -8  
06:00 -5.5 -7.4 86   21 7 15.0 99.51   -9  
07:00 -6.3 -8.1 87     0 15.0 99.53      
08:00 -3.2 -5.3 85     0 24.1 99.56     Mainly Clear
09:00 -1.0 -3.9 81     0 24.1 99.56     Mainly Clear
10:00 1.1 -3.2 73   10 4 24.1 99.56     Mainly Clear
11:00 1.9 -3.5 67   7 9 24.1 99.50     Mostly Cloudy
12:00 2.8 -4.1 60   3 6 24.1 99.42     Mostly Cloudy
13:00 4.3 -3.8 56   10 4 24.1 99.35     Mostly Cloudy
14:00 4.4 -3.6 56   27 4 24.1 99.28     Mostly Cloudy
15:00 4.4 -3.7 56   6 4 24.1 99.25     Mostly Cloudy
16:00 1.9 -3.8 66     0 24.1 99.28     Mostly Cloudy
17:00 2.4 -4.0 63   5 7 24.1 99.25     Mostly Cloudy
18:00 1.5 -4.1 66   7 7 15.0 99.25      
19:00 1.3 -4.1 67   7 7 15.0 99.28      
20:00 1.1 -4.1 68   9 7 15.0 99.28      
21:00 0.2 -4.3 72   9 9 15.0 99.28      
22:00 0.1 -4.3 72   8 7 15.0 99.27      
23:00 1.0 -3.9 70   7 9 15.0 99.25      

Notes on Data Quality.

Legend

  • E = Estimated
  • M = Missing
  • NA = Not Available*
  • [empty] = Indicates an unobserved value
Date modified: